Regional Weather Roundup
Issued by NWS

Home | Current Version | Previous Version | Graphics & Text | Print | Product List | Glossary Off
Versions: 1 2 3 4 5 6 7 8 9 10 11 12 13 14 15 16 17 18 19 20 21 22 23 24 25 26 27 28 29 30 31 32 33 34 35 36 37 38 39 40 41 42 43 44 45 46 47 48 49

000
ASUS43 KDMX 021007
RWRIA

WEATHER ROUNDUP FOR IOWA
NATIONAL WEATHER SERVICE DES MOINES IA
500 AM CDT THU JUL 02 2015

NOTE: "FAIR" INDICATES FEW OR NO CLOUDS BELOW 12,000 FEET WITH NO
SIGNIFICANT WEATHER AND/OR OBSTRUCTIONS TO VISIBILITY.

* - THESE STATIONS ARE NOT NWS STATIONS...THUS NOT UNDER NWS
QUALITY CONTROL.  THEY ALSO DO NOT REPORT WEATHER SUCH
AS PRECIPITATION OR FOG.

IAZ001>003-012>014-020>022-031>034-043>046-021100-
   NORTHWEST IOWA

CITY           SKY/WX    TMP DP  RH WIND       PRES   REMARKS
CARROLL *      CLOUDY    55  55 100 NE5       29.99S
CHEROKEE *     CLOUDY    55  55 100 E3        30.00S
DENISON *      MOCLDY    57  55  94 NE8       29.96S
LE MARS *        N/A     59  55  88 NE5       30.01R
ORANGE CITY *  CLEAR     55  52  88 E5        30.01R
SHELDON *      CLOUDY    55  55 100 E7        30.00R
SIOUX CITY     CLOUDY    60  54  80 E7        29.97F
SPENCER        CLOUDY    54  51  90 E3        30.01R
STORM LAKE *   CLEAR     54  52  94 E7        30.01S
$$

IAZ055>058-069>071-079>083-090>094-021100-
   SOUTHWEST IOWA

CITY           SKY/WX    TMP DP  RH WIND       PRES   REMARKS
ATLANTIC *     PTCLDY    61  59  94 NE9       29.95S
AUDUBON *      CLEAR     57  54  88 N3        29.98S
CLARINDA *     MOCLDY    64  61  88 VRB5      29.94R
COUNCIL BLFS * CLOUDY    63  59  88 NE9       29.94S
CRESTON *      CLOUDY    61  59  94 NE10      29.94S
HARLAN  *      CLEAR     59  59 100 NE6       29.98F
LAMONI         CLOUDY    64  61  90 NE7       29.93R
RED OAK *      PTCLDY    63  61  94 NE7       29.93S
SHENANDOAH *   CLEAR     64  63  94 NE7       29.93R
$$

IAZ047>049-059>061-072>074-084-021100-
   CENTRAL IOWA

CITY           SKY/WX    TMP DP  RH WIND       PRES   REMARKS
AMES           CLEAR     55  52  89 N5        29.99R
ANKENY *       CLEAR     55  55 100 N5        29.97R
CHARITON *     PTCLDY    59  57  94 NE5       29.94R
DES MOINES     PTCLDY    60  54  80 NE9       29.96R
GRINNELL*      CLEAR     55  54  94 NE7       29.98R
KNOXVILLE *    CLOUDY    59  55  88 E7        29.94R
MARSHALLTOWN   CLEAR     55  52  89 CALM      29.98R
PELLA *        CLEAR     59  57  94 CALM      29.97R
PERRY *          N/A     55  54  94 NE6       29.98R
$$

IAZ004>006-015-016-023>025-035-036-021100-
   NORTH CENTRAL IOWA

CITY           SKY/WX    TMP DP  RH WIND       PRES   REMARKS
ALGONA *       CLOUDY    52  50  93 E3        30.03R
CLARION *      CLEAR     52  50  93 E8        30.01R
ESTHERVILLE    MOCLDY    50  49  96 E5        30.02R
FORT DODGE *   CLOUDY    54  48  82 CALM      30.02R
MASON CITY     CLEAR     46  46 100 NE3       30.04R FOG
FOREST CITY *  CLEAR     46  46 100 CALM      30.03R FOG
IOWA FALLS *     N/A     52  50  93 NE3       30.02R
$$

IAZ007>011-017>019-026>030-037>042-050>054-066-021100-
   NORTHEAST IOWA

CITY           SKY/WX    TMP DP  RH WIND       PRES   REMARKS
CEDAR RAPIDS   CLOUDY    57  55  93 E9        29.97S
CHARLES CITY * CLEAR     50  50 100 CALM      30.03R
CLINTON *      CLEAR     52  48  87 NE9       30.00S
DECORAH *        N/A    N/A N/A N/A MISG        N/A
DUBUQUE        CLEAR     51  49  92 NE6       30.00F
MONTICELLO *   CLEAR     54 N/A N/A NE3       29.99S
OELWEIN *      CLEAR     50  50 100 NE6       30.02R
WATERLOO       CLEAR     52  51  97 CALM      30.00R
$$

IAZ064-065-067-068-078-021100-
   EAST CENTRAL IOWA

CITY           SKY/WX    TMP DP  RH WIND       PRES   REMARKS
DAVENPORT      PTCLDY    55  52  89 E8        29.97F
IOWA CITY      PTCLDY    59  55  87 E5        29.97S
MT. PLEASANT * PTCLDY    61  57  88 E7        29.94R
MUSCATINE *    MOCLDY    59  54  82 NE8       29.96S
QUAD CITIES    PTCLDY    57  52  83 NE8       29.96S
$$

IAZ062-063-075>077-085>089-095>099-021100-
   SOUTHEAST IOWA

CITY           SKY/WX    TMP DP  RH WIND       PRES   REMARKS
BURLINGTON     CLOUDY    61  55  81 NE10      29.93R
FAIRFIELD *    PTCLDY    59  55  88 NE8       29.93S
FORT MADISON * CLEAR     61  57  88 E10       29.94R
KEOKUK *       CLOUDY    64  61  88 NE8G14    29.91S
OSKALOOSA *    MOCLDY    57  55  94 NE5       29.96R
CENTERVILLE *  MOCLDY    61  59  94 NE7       29.94R
OTTUMWA        PTCLDY    58  56  93 NE8       29.93S
WASHINGTON *   CLOUDY    59  57  94 E8        29.96S
$$

ABBREVIATIONS USED IN REMARKS
   TC - TEMPERATURES IN CELSIUS
  WCI - WIND CHILL INDEX
   HX - HEAT INDEX
  VSB - VISIBILITY
$$




USA.gov is the U.S. government's official web portal to all federal, state and local government web resources and services.